TimeCDT,TemperatureF,Dew PointF,Humidity,Sea Level PressureIn,VisibilityMPH,Wind Direction,Wind SpeedMPH,Gust SpeedMPH,PrecipitationIn,Events,Conditions,WindDirDegrees,DateUTC
12:13 AM,46.4,37.4,71,29.98,10.0,North,15.0,-,N/A,,Overcast,350,2012-11-01 05:13:00
12:34 AM,46.4,37.4,71,29.99,10.0,North,17.3,21.9,N/A,,Overcast,350,2012-11-01 05:34:00
12:54 AM,44.6,37.4,76,29.99,10.0,North,16.1,23.0,N/A,,Overcast,360,2012-11-01 05:54:00
1:13 AM,44.6,37.4,76,30.00,10.0,North,15.0,26.5,N/A,,Overcast,360,2012-11-01 06:13:00
1:33 AM,42.8,37.4,81,30.01,7.0,North,17.3,25.3,N/A,,Scattered Clouds,350,2012-11-01 06:33:00
1:54 AM,42.8,37.4,81,30.01,7.0,North,18.4,26.5,N/A,,Scattered Clouds,350,2012-11-01 06:54:00
2:13 AM,42.8,37.4,81,30.02,7.0,NNW,18.4,24.2,N/A,,Scattered Clouds,340,2012-11-01 07:13:00
2:33 AM,42.8,35.6,76,30.02,10.0,North,17.3,24.2,N/A,,Scattered Clouds,350,2012-11-01 07:33:00
3:13 AM,42.8,35.6,76,30.02,7.0,NNW,17.3,-,N/A,,Scattered Clouds,340,2012-11-01 08:13:00
3:33 AM,41.0,35.6,81,30.02,10.0,NNW,15.0,23.0,N/A,,Mostly Cloudy,340,2012-11-01 08:33:00
3:54 AM,41.0,35.6,81,30.02,10.0,North,18.4,21.9,N/A,,Overcast,350,2012-11-01 08:54:00
4:13 AM,41.0,35.6,81,30.03,10.0,North,11.5,-,N/A,,Overcast,350,2012-11-01 09:13:00
4:34 AM,39.2,35.6,87,30.03,10.0,North,20.7,26.5,N/A,,Overcast,350,2012-11-01 09:34:00
5:14 AM,39.2,33.8,81,30.04,10.0,North,18.4,26.5,N/A,,Overcast,350,2012-11-01 10:14:00
5:34 AM,39.2,33.8,81,30.04,10.0,North,15.0,21.9,N/A,,Overcast,350,2012-11-01 10:34:00
5:53 AM,39.2,32.0,75,30.05,10.0,North,15.0,19.6,N/A,,Overcast,350,2012-11-01 10:53:00
6:14 AM,39.2,32.0,75,30.05,10.0,North,15.0,19.6,N/A,,Overcast,350,2012-11-01 11:14:00
6:34 AM,37.4,30.2,75,30.05,10.0,North,15.0,20.7,N/A,,Overcast,350,2012-11-01 11:34:00
6:53 AM,37.4,30.2,75,30.06,10.0,North,13.8,20.7,N/A,,Mostly Cloudy,350,2012-11-01 11:53:00
7:34 AM,35.6,30.2,81,30.07,10.0,North,12.7,17.3,N/A,,Scattered Clouds,350,2012-11-01 12:34:00
7:53 AM,35.6,30.2,81,30.07,10.0,North,12.7,-,N/A,,Mostly Cloudy,350,2012-11-01 12:53:00
8:34 AM,33.8,28.4,81,30.08,10.0,North,12.7,-,N/A,,Clear,350,2012-11-01 13:34:00
9:14 AM,33.8,28.4,81,30.08,10.0,North,13.8,19.6,N/A,,Clear,350,2012-11-01 14:14:00
9:34 AM,33.8,28.4,81,30.08,10.0,North,16.1,-,N/A,,Clear,360,2012-11-01 14:34:00
10:14 AM,33.8,26.6,75,30.09,10.0,North,13.8,-,N/A,,Scattered Clouds,360,2012-11-01 15:14:00
10:34 AM,35.6,26.6,70,30.09,10.0,NNW,17.3,-,N/A,,Mostly Cloudy,340,2012-11-01 15:34:00
10:53 AM,35.6,26.6,70,30.09,10.0,North,17.3,24.2,N/A,,Mostly Cloudy,350,2012-11-01 15:53:00
11:14 AM,37.4,26.6,65,30.08,10.0,North,13.8,20.7,N/A,,Scattered Clouds,10,2012-11-01 16:14:00
11:34 AM,37.4,24.8,60,30.09,10.0,NNW,16.1,20.7,N/A,,Clear,340,2012-11-01 16:34:00
11:53 AM,37.4,24.8,60,30.09,10.0,NNW,17.3,23.0,N/A,,Clear,340,2012-11-01 16:53:00
12:14 PM,37.4,24.8,60,30.08,10.0,North,17.3,23.0,N/A,,Clear,350,2012-11-01 17:14:00
12:34 PM,37.4,24.8,60,30.09,10.0,North,18.4,21.9,N/A,,Clear,350,2012-11-01 17:34:00
12:53 PM,39.2,24.8,56,30.08,10.0,North,18.4,24.2,N/A,,Clear,350,2012-11-01 17:53:00
1:14 PM,39.2,24.8,56,30.07,10.0,NNW,18.4,23.0,N/A,,Clear,330,2012-11-01 18:14:00
1:34 PM,39.2,24.8,56,30.07,10.0,North,17.3,24.2,N/A,,Clear,350,2012-11-01 18:34:00
1:53 PM,39.2,23.0,52,30.06,10.0,NNW,15.0,-,N/A,,Clear,340,2012-11-01 18:53:00
2:14 PM,39.2,23.0,52,30.05,10.0,North,15.0,-,N/A,,Clear,360,2012-11-01 19:14:00
2:33 PM,37.4,23.0,56,30.05,10.0,North,17.3,-,N/A,,Clear,350,2012-11-01 19:33:00
2:54 PM,37.4,23.0,56,30.05,10.0,North,13.8,-,N/A,,Clear,350,2012-11-01 19:54:00
3:14 PM,39.2,23.0,52,30.05,10.0,NNW,16.1,19.6,N/A,,Clear,340,2012-11-01 20:14:00
3:54 PM,39.2,23.0,52,30.05,10.0,North,12.7,-,N/A,,Clear,360,2012-11-01 20:54:00
4:14 PM,39.2,23.0,52,30.05,10.0,North,13.8,-,N/A,,Clear,350,2012-11-01 21:14:00
4:33 PM,39.2,23.0,52,30.04,10.0,North,15.0,18.4,N/A,,Clear,360,2012-11-01 21:33:00
4:54 PM,37.4,21.2,52,30.04,10.0,North,12.7,17.3,N/A,,Clear,10,2012-11-01 21:54:00
5:14 PM,37.4,21.2,52,30.04,10.0,North,11.5,-,N/A,,Clear,350,2012-11-01 22:14:00
5:33 PM,37.4,21.2,52,30.04,10.0,North,10.4,-,N/A,,Clear,350,2012-11-01 22:33:00
5:54 PM,35.6,23.0,60,30.03,10.0,North,12.7,-,N/A,,Clear,350,2012-11-01 22:54:00
6:14 PM,35.6,23.0,60,30.03,10.0,North,10.4,-,N/A,,Clear,360,2012-11-01 23:14:00
6:33 PM,33.8,23.0,65,30.04,10.0,North,8.1,-,N/A,,Clear,350,2012-11-01 23:33:00
6:54 PM,33.8,23.0,65,30.05,10.0,NNW,9.2,-,N/A,,Clear,330,2012-11-01 23:54:00
7:13 PM,32.0,23.0,69,30.05,10.0,NNW,9.2,-,N/A,,Clear,340,2012-11-02 00:13:00
7:34 PM,32.0,23.0,69,30.05,10.0,NNW,10.4,-,N/A,,Clear,340,2012-11-02 00:34:00
7:54 PM,30.2,23.0,75,30.06,10.0,NNW,9.2,-,N/A,,Clear,340,2012-11-02 00:54:00
8:13 PM,30.2,23.0,75,30.06,10.0,NNW,10.4,-,N/A,,Clear,330,2012-11-02 01:13:00
8:34 PM,30.2,23.0,75,30.06,10.0,NNW,9.2,-,N/A,,Clear,340,2012-11-02 01:34:00
8:54 PM,28.4,21.2,74,30.06,10.0,NNW,6.9,-,N/A,,Clear,340,2012-11-02 01:54:00
9:13 PM,28.4,23.0,80,30.07,10.0,NNW,6.9,-,N/A,,Clear,330,2012-11-02 02:13:00
9:34 PM,28.4,23.0,80,30.07,10.0,NNW,8.1,-,N/A,,Clear,340,2012-11-02 02:34:00
9:54 PM,28.4,23.0,80,30.07,10.0,North,8.1,-,N/A,,Clear,350,2012-11-02 02:54:00
10:13 PM,28.4,21.2,74,30.07,10.0,NNW,6.9,-,N/A,,Clear,340,2012-11-02 03:13:00
10:33 PM,28.4,21.2,74,30.07,10.0,North,6.9,-,N/A,,Clear,350,2012-11-02 03:33:00
10:54 PM,28.4,21.2,74,30.07,10.0,North,6.9,-,N/A,,Clear,350,2012-11-02 03:54:00
11:13 PM,28.4,21.2,74,30.08,10.0,NNW,5.8,-,N/A,,Clear,340,2012-11-02 04:13:00
11:34 PM,26.6,21.2,80,30.08,10.0,North,4.6,-,N/A,,Clear,360,2012-11-02 04:34:00
11:54 PM,26.6,21.2,80,30.09,10.0,North,5.8,-,N/A,,Clear,360,2012-11-02 04:54:00